Sauk Centre, MN

6:37 AM CDT on May 30, 2017 (GMT -0500)
Sauk Centre

Weather History for KD39 - December, 2012

Change the Weather History Date:

Saturday, December 8, 2012

  Actual Average (KGHW) Record (KGHW)
Temperature  
Mean Temperature 24 °F -  
Max Temperature 28 °F 27 °F 53 °F (1990)
Min Temperature 21 °F 9 °F -13 °F (1955)
Degree Days  
Heating Degree Days 40    
Moisture  
Dew Point 22 °F    
Average Humidity 89    
Maximum Humidity 100    
Minimum Humidity 80    
Precipitation  
Precipitation 0.00 in - - ()
Sea Level Pressure  
Sea Level Pressure 29.99 in    
Wind  
Wind Speed 4 mph (ESE)    
Max Wind Speed 12 mph    
Max Gust Speed -    
Visibility 7 miles    
Events Snow    
Averages and records for this station are not official NWS values.
T = Trace of Precipitation, MM = Missing Value Source: NWS Daily Summary

Daily Weather History Graph

Daily Weather History Graph

Search for Another Location

Airport or City:

Trip Planner

Search our weather history database for the weather conditions in past years. The results will help you decide how hot, cold, wet, or windy it might be!

Date:

Astronomy

Dec. 08, 2012 Rise Set
Actual Time 7:48 AM CST 4:35 PM CST
Civil Twilight 7:14 AM CST 5:09 PM CST
Nautical Twilight 6:36 AM CST 5:47 PM CST
Astronomical Twilight 6:00 AM CST 6:23 PM CST
Moon 2:00 AM CST (12/8) 1:17 PM CST (12/8)
Length of Visible Light 9h 55m
Length of Day
8h 47m
Waning Crescent, 28% of the Moon is Illuminated
Dec 8
Waning Crescent
Dec 13
New
Dec 19
First Quarter
Dec 28
Full
Jan 4
Last Quarter

Hourly Weather History & Observations

Time (CST) Temp. Windchill Dew Point Humidity Pressure Visibility Wind Dir Wind Speed Gust Speed Precip Events Conditions
12:15 AM 23.0 °F - 21.2 °F 93% 30.02 in 7.0 mi Calm Calm - N/A Snow Light Snow
12:35 AM 23.0 °F - 21.2 °F 93% 30.02 in 7.0 mi Calm Calm - N/A Snow Light Snow
12:55 AM 23.0 °F - 21.2 °F 93% 30.02 in 7.0 mi Calm Calm - N/A Snow Light Snow
1:15 AM 23.0 °F - 19.4 °F 86% 30.01 in 7.0 mi Calm Calm - N/A Snow Light Snow
1:35 AM 23.0 °F - 19.4 °F 86% 30.01 in 7.0 mi Calm Calm - N/A Snow Light Snow
1:55 AM 23.0 °F 18.4 °F 19.4 °F 86% 30.01 in 5.0 mi East 3.5 mph - N/A Snow Light Snow
2:15 AM 23.0 °F 18.4 °F 19.4 °F 86% 30.01 in 7.0 mi ESE 3.5 mph - N/A   Overcast
2:35 AM 23.0 °F - 19.4 °F 86% 30.02 in 5.0 mi Calm Calm - N/A Snow Light Snow
2:55 AM 23.0 °F 17.0 °F 19.4 °F 86% 30.02 in 5.0 mi East 4.6 mph - N/A Snow Light Snow
3:15 AM 21.2 °F 14.9 °F 19.4 °F 93% 30.01 in 7.0 mi East 4.6 mph - N/A Snow Light Snow
3:35 AM 21.2 °F 16.4 °F 19.4 °F 93% 30.01 in 7.0 mi East 3.5 mph - N/A   Overcast
3:55 AM 21.2 °F - 19.4 °F 93% 30.01 in 10.0 mi Calm Calm - N/A   Overcast
4:15 AM 21.2 °F - 19.4 °F 93% 30.01 in 7.0 mi Calm Calm - N/A   Overcast
4:35 AM 21.2 °F 16.4 °F 19.4 °F 93% 30.01 in 10.0 mi East 3.5 mph - N/A   Overcast
4:55 AM 21.2 °F 16.4 °F 19.4 °F 93% 30.01 in 10.0 mi East 3.5 mph - N/A   Overcast
5:15 AM 21.2 °F 16.4 °F 19.4 °F 93% 30.01 in 10.0 mi East 3.5 mph - N/A   Overcast
5:35 AM 21.2 °F 16.4 °F 19.4 °F 93% 30.01 in 10.0 mi ESE 3.5 mph - N/A   Overcast
5:55 AM 21.2 °F 16.4 °F 19.4 °F 93% 30.01 in 7.0 mi ESE 3.5 mph - N/A   Overcast
6:15 AM 21.2 °F 14.9 °F 19.4 °F 93% 30.00 in 7.0 mi ESE 4.6 mph - N/A Snow Light Snow
6:35 AM 21.2 °F 14.9 °F 19.4 °F 93% 30.00 in 7.0 mi East 4.6 mph - N/A   Overcast
6:55 AM 21.2 °F 13.6 °F 19.4 °F 93% 29.99 in 7.0 mi East 5.8 mph - N/A Snow Light Snow
7:15 AM 21.2 °F 14.9 °F 19.4 °F 93% 29.99 in 10.0 mi ESE 4.6 mph - N/A   Overcast
7:35 AM 21.2 °F 13.6 °F 19.4 °F 93% 29.99 in 10.0 mi ESE 5.8 mph - N/A   Overcast
7:55 AM 23.0 °F 14.7 °F 19.4 °F 86% 29.99 in 10.0 mi ESE 6.9 mph - N/A   Overcast
8:15 AM 23.0 °F 14.7 °F 19.4 °F 86% 29.99 in 10.0 mi ESE 6.9 mph - N/A   Overcast
8:35 AM 23.0 °F 13.9 °F 19.4 °F 86% 30.00 in 10.0 mi ESE 8.1 mph - N/A   Overcast
8:55 AM 23.0 °F 15.8 °F 21.2 °F 93% 30.00 in 10.0 mi SE 5.8 mph - N/A   Overcast
9:15 AM 23.0 °F 15.8 °F 21.2 °F 93% 30.00 in 10.0 mi SE 5.8 mph - N/A   Overcast
9:35 AM 23.0 °F 17.0 °F 21.2 °F 93% 30.01 in 10.0 mi SE 4.6 mph - N/A   Overcast
9:55 AM 24.8 °F 19.1 °F 21.2 °F 86% 30.01 in 10.0 mi SE 4.6 mph - N/A   Overcast
10:15 AM 24.8 °F 16.1 °F 21.2 °F 86% 30.02 in 10.0 mi SSE 8.1 mph - N/A   Overcast
10:35 AM 26.6 °F 20.0 °F 23.0 °F 86% 30.02 in 10.0 mi SSE 5.8 mph - N/A   Overcast
10:55 AM 26.6 °F 18.2 °F 23.0 °F 86% 30.01 in 10.0 mi SSE 8.1 mph - N/A   Overcast
11:15 AM 26.6 °F 19.1 °F 23.0 °F 86% 30.01 in 10.0 mi SSE 6.9 mph - N/A   Overcast
11:35 AM 26.6 °F 20.0 °F 23.0 °F 86% 30.00 in 10.0 mi SE 5.8 mph - N/A   Overcast
11:55 AM 28.4 °F 22.2 °F 23.0 °F 80% 29.99 in 10.0 mi SE 5.8 mph - N/A   Overcast
12:15 PM 28.4 °F 24.6 °F 23.0 °F 80% 29.99 in 10.0 mi SE 3.5 mph - N/A   Overcast
12:35 PM 28.4 °F 22.2 °F 24.8 °F 86% 29.99 in 10.0 mi SSE 5.8 mph - N/A   Overcast
12:55 PM 28.4 °F 20.4 °F 24.8 °F 86% 29.98 in 7.0 mi SSE 8.1 mph - N/A   Overcast
1:15 PM 28.4 °F 21.2 °F 24.8 °F 86% 29.98 in 7.0 mi SSE 6.9 mph - N/A   Overcast
1:35 PM 28.4 °F 19.7 °F 24.8 °F 86% 29.97 in 7.0 mi SE 9.2 mph - N/A   Overcast
1:55 PM 26.6 °F 16.8 °F 24.8 °F 93% 29.96 in 5.0 mi ESE 10.4 mph - N/A   Overcast
2:15 PM 26.6 °F 16.8 °F 24.8 °F 93% 29.95 in 5.0 mi ESE 10.4 mph - N/A   Overcast
2:35 PM 26.6 °F 16.2 °F 23.0 °F 86% 29.94 in 7.0 mi SE 11.5 mph - N/A   Overcast
2:55 PM 26.6 °F 18.2 °F 24.8 °F 93% 29.95 in 7.0 mi SE 8.1 mph - N/A   Overcast
3:15 PM 26.6 °F 16.8 °F 23.0 °F 86% 29.95 in 7.0 mi ESE 10.4 mph - N/A   Overcast
3:35 PM 26.6 °F 16.8 °F 23.0 °F 86% 29.96 in 7.0 mi SE 10.4 mph - N/A   Overcast
3:55 PM 26.6 °F 17.5 °F 23.0 °F 86% 29.96 in 10.0 mi SE 9.2 mph - N/A   Overcast
4:15 PM 26.6 °F 18.2 °F 23.0 °F 86% 29.96 in 7.0 mi ESE 8.1 mph - N/A   Overcast
4:35 PM 26.6 °F 19.1 °F 23.0 °F 86% 29.96 in 7.0 mi ESE 6.9 mph - N/A   Overcast
4:55 PM 26.6 °F 19.1 °F 23.0 °F 86% 29.96 in 7.0 mi ESE 6.9 mph - N/A   Mostly Cloudy
5:15 PM 26.6 °F 20.0 °F 23.0 °F 86% 29.97 in 7.0 mi ESE 5.8 mph - N/A   Scattered Clouds
5:35 PM 24.8 °F 20.5 °F 23.0 °F 93% 29.96 in 7.0 mi ESE 3.5 mph - N/A   Clear
5:55 PM 24.8 °F 17.9 °F 23.0 °F 93% 29.96 in 7.0 mi East 5.8 mph - N/A   Clear
6:15 PM 24.8 °F 17.9 °F 23.0 °F 93% 29.97 in 7.0 mi ESE 5.8 mph - N/A   Scattered Clouds
6:55 PM 24.8 °F 17.9 °F 23.0 °F 93% 29.97 in 7.0 mi East 5.8 mph - N/A   Scattered Clouds
7:35 PM 26.6 °F 17.5 °F 23.0 °F 86% 29.96 in 7.0 mi East 9.2 mph - N/A   Overcast
7:55 PM 26.6 °F 16.8 °F 23.0 °F 86% 29.95 in 7.0 mi East 10.4 mph - N/A   Overcast
8:15 PM 26.6 °F 17.5 °F 24.8 °F 93% 29.95 in 7.0 mi East 9.2 mph - N/A   Overcast
8:35 PM 28.4 °F 19.1 °F 24.8 °F 86% 29.95 in 10.0 mi East 10.4 mph - N/A   Overcast
8:55 PM 28.4 °F 19.7 °F 24.8 °F 86% 29.95 in 7.0 mi East 9.2 mph - N/A   Overcast
9:15 PM 28.4 °F 19.1 °F 24.8 °F 86% 29.95 in 4.0 mi East 10.4 mph - N/A Snow Light Snow
9:55 PM 28.4 °F 19.7 °F 26.6 °F 93% 29.96 in 1.8 mi East 9.2 mph - N/A Snow Light Snow
10:35 PM 28.4 °F 19.7 °F 26.6 °F 93% 29.95 in 1.2 mi East 9.2 mph - N/A Snow Light Snow
10:55 PM 28.4 °F 19.1 °F 26.6 °F 93% 29.96 in 1.2 mi East 10.4 mph - N/A Snow Light Snow
11:15 PM 28.4 °F 19.7 °F 26.6 °F 93% 29.96 in 1.2 mi East 9.2 mph - N/A Snow Light Snow
11:35 PM 28.4 °F 19.7 °F 26.6 °F 93% 29.96 in 1.0 mi East 9.2 mph - N/A Snow Snow
11:55 PM 28.4 °F 20.4 °F 28.4 °F 100% 29.97 in 1.0 mi East 8.1 mph - N/A Snow Snow